Location: Unnamed
(47.6264°N, 122.3366°W)
Time: 23:09:05
(UTC-07:00)

ELYUSIUM/LOWER FREE FLYE - Pass Details

Date: 09 August 2020
Orbit: 571 x 589 km, 97.7° (Epoch: 21 September)

Event Time Altitude Azimuth Distance (km) Brightness Sun altitude
Exits shadow 22:54:49 50° 166° (SSE) 734 ? -19.6°
Maximum altitude 22:55:50 90° 250° (WSW) 581 ? -19.7°
Drops below altitude 10° 22:59:57 10° 347° (NNW) 1,897 ? -20.1°
Sets 23:02:07 0° 347° (NNW) 2,803 ? -20.3°
